Regional Weather Roundup
Issued by NWS

Home | Current Version | Previous Version | Graphics & Text | Print | Product List | Glossary On
Versions: 1 2 3 4 5 6 7 8 9 10 11 12 13 14 15 16 17 18 19 20 21 22 23 24 25 26 27 28 29 30 31 32 33 34 35 36 37 38 39 40 41 42 43 44 45 46 47 48 49 50
000
ASUS45 KBOU 230607
RWRCO

WEATHER ROUNDUP FOR COLORADO
NATIONAL WEATHER SERVICE DENVER/BOULDER CO
1200 AM MDT THU MAR 23 2017

NOTE: "FAIR" INDICATES FEW OR NO CLOUDS BELOW 12000 FEET WITH NO
SIGNIFICANT WEATHER AND/OR OBSTRUCTIONS TO VISIBILITY.

COZ001>005-013-030-031-230700-
...NORTHWEST COLORADO...

CITY           SKY/WX    TMP DP  RH WIND       PRES   REMARKS
CRAIG          FAIR      45  31  58 SE6       29.82F
HAYDEN         FAIR      46  28  49 CALM      29.83F
MEEKER         CLOUDY    45  34  65 NE3       29.82F
MOUNT WERNER   NOT AVBL
STEAMBOAT SPGS FAIR      42  29  61 CALM      29.85F
WALDEN         NOT AVBL
$$

COZ006>008-011-230700-
...WEST CENTRAL VALLEYS...

CITY           SKY/WX    TMP DP  RH WIND       PRES   REMARKS
GRAND JUNCTION CLOUDY    59  30  33 NW12      29.77R
MONTROSE       MOCLDY    53  25  33 W9        29.84R
EAGLE          FAIR      41  28  60 CALM      29.85F
RIFLE          MOCLDY    49  36  61 N3        29.79F
DELTA          CLOUDY    60  27  29 CALM      29.80R
NUCLA          CLOUDY    54  23  30 CALM      29.84F
$$

COZ017>023-064>068-230700-
...SOUTHWEST COLORADO...

CITY           SKY/WX    TMP DP  RH WIND       PRES   REMARKS
DURANGO        FAIR      44  24  45 CALM      29.93F
CORTEZ         FAIR      55  21  26 SW12      29.86S
PAGOSA SPRINGS NOT AVBL
TELLURIDE      CLOUDY    49  15  25 S8        29.99F
WOLF CREEK PAS CLOUDY    32  18  55 S20G35    30.17F WCI  20
$$

COZ009-010-012-014-032>034-037-058>063-230700-
...CENTRAL COLORADO...

CITY           SKY/WX    TMP DP  RH WIND       PRES   REMARKS
ASPEN          FAIR      50  21  32 S8        29.88F
BUENA VISTA    FAIR      48  15  26 SW3       29.95F
COPPER MTN     FAIR      37  14  38 MISG      30.10F
BERTHOUD PASS  FAIR      32  21  64 S13G35    30.13F WCI  22
COTTONWOOD PAS FAIR      48  19  32 SW15G23   30.04F
GUNNISON       FAIR      47  27  45 S16       29.96F
KREMMLING      FAIR      41  30  65 CALM      29.90F
LEADVILLE      FAIR      39  17  41 S12       30.00F
MONARCH PASS   FAIR      32  23  69 SW36G44   30.23F WCI  16
SALIDA         FAIR      56  22  26 S10       30.02F
SUNLIGHT       MOCLDY    36  18  48 SW10G17   30.03F
WILKERSON PASS MOCLDY    36  10  35 SW10G22   30.13F
$$

COZ069>075-230700-
...SAN LUIS VALLEY/SANGRE DE CRISTO MOUNTAINS...

CITY           SKY/WX    TMP DP  RH WIND       PRES   REMARKS
ALAMOSA        FAIR      47  22  37 S9        29.95F
LA VETA PASS   NOT AVBL
SAGUACHE       FAIR      43  19  39 NW6       29.98S
$$

COZ035-036-038>040-230700-
...NORTHERN COLORADO FRONT RANGE...

CITY           SKY/WX    TMP DP  RH WIND       PRES   REMARKS
DENVER INTL AP FAIR      49  35  58 S12       29.78F
DMNS CITY PARK   N/A     53  31  42 SE9       29.78F
AURORA         MOCLDY    55  37  50 S20G25    29.80F
FRONT RANGE AP FAIR      52  37  58 S13G21    29.80F
ERIE MUNI ARPT FAIR      46  31  57 S3        29.77F
BOULDER MUN AP FAIR      55  27  33 CALM      29.76F
CENTENNIAL     FAIR      54  32  43 S14       29.81F
BROOMFIELD     FAIR      50  30  46 SW7       29.80F
FORT COLLINS   FAIR      49  34  56 N10       29.76F
LONGMONT       FAIR      48  33  57 CALM      29.78F
$$

COZ041-046-047-076>085-087-088-230700-
...PIKES PEAK/PALMER DIVIDE AND SOUTHERN FOOTHILLS...

CITY           SKY/WX    TMP DP  RH WIND       PRES   REMARKS
COLO. SPRINGS  FAIR      47  35  63 N8        29.88F
A. F. ACADEMY  FAIR      37  28  69 N9        29.88F
SCHRIEVER AFB  FAIR      47  36  67 NW9       29.89F
ELLICOTT         N/A    N/A N/A N/A E9        29.87F
FALCON         FAIR      41  34  76 N5        29.91F
FORT CARSON    NOT AVBL
LIMON          FAIR      41  37  86 SE7       29.87F
MONUMENT HILL  FAIR      43  36  75 S10       29.91F
TRINIDAD       FAIR      62  38  40 S29G39    29.86F
$$

COZ042>045-048>051-090-091-230700-
...NORTHEAST COLORADO...

CITY           SKY/WX    TMP DP  RH WIND       PRES   REMARKS
GREELEY ARPT   FAIR      51  38  60 E8        29.77F
AKRON          FAIR      43  35  73 SE14      29.81F
BURLINGTON     FAIR      47  39  74 S26       29.86F
WRAY           NOT AVBL
STERLING       FAIR      46  37  71 S8        29.81F
HOLYOKE        FAIR      43  34  70 SE12      29.86F
FORT MORGAN    FAIR      44  34  68 E8        29.81F
$$

COZ086-089-092>099-230700-
...SOUTHEAST COLORADO...

CITY           SKY/WX    TMP DP  RH WIND       PRES   REMARKS
PUEBLO         FAIR      47  31  53 CALM      29.81F
LA JUNTA       FAIR      66  44  45 S22G28    29.82F
LAMAR          FAIR      54  44  69 E8        29.85F
SPRINGFIELD      N/A     55  46  71 S21G30    29.91F
$$



USA.gov is the U.S. government's official web portal to all federal, state and local government web resources and services.